This is the latest recevied weather packets stored in our database for station/object KI6PPU. If no packets are shown the sender has not sent any weather packets the latest 10 day(s).
| Time | Temp. | Humidity | Pressure | Rain* | Wind** | Luminosity | Snow |
|---|---|---|---|---|---|---|---|
| 1788571698 | 22.22° C | 45% | 1016.1 hPa | 0 mm | - | 24 W/m² | - |
| 1788571394 | 22.22° C | 45% | 1016.2 hPa | 0 mm | - | 26 W/m² | - |
| 1788571091 | 22.22° C | 44% | 1016.2 hPa | 0 mm | - | 28 W/m² | - |
| 1788570787 | 22.22° C | 43% | 1016.1 hPa | 0 mm | - | 28 W/m² | - |
| 1788570487 | 22.22° C | 42% | 1016.1 hPa | 0 mm | - | 29 W/m² | - |
| 1788570182 | 22.78° C | 46% | 1016.2 hPa | 0 mm | - | 31 W/m² | - |
| 1788569879 | 22.78° C | 46% | 1016 hPa | 0 mm | - | 32 W/m² | - |
| 1788569579 | 22.78° C | 44% | 1015.9 hPa | 0 mm | - | 33 W/m² | - |
| 1788569279 | 22.78° C | 42% | 1016.1 hPa | 0 mm | - | 34 W/m² | - |
| 1788568973 | 22.78° C | 42% | 1016.2 hPa | 0 mm | - | 35 W/m² | - |
| 1788568668 | 22.78° C | 43% | 1016 hPa | 0 mm | - | 37 W/m² | - |
| 1788568364 | 23.33° C | 42% | 1016.2 hPa | 0 mm | - | 38 W/m² | - |
| 1788568059 | 23.89° C | 39% | 1016.1 hPa | 0 mm | - | 38 W/m² | - |
| 1788567754 | 24.44° C | 37% | 1016.1 hPa | 0 mm | - | 217 W/m² | - |
| 1788567449 | 24.44° C | 38% | 1016.2 hPa | 0 mm | - | 303 W/m² | - |
| 1788567148 | 24.44° C | 37% | 1016.3 hPa | 0 mm | - | 254 W/m² | - |
| 1788566843 | 24.44° C | 38% | 1016.2 hPa | 0 mm | - | 201 W/m² | - |
| 1788566539 | 23.89° C | 39% | 1016.2 hPa | 0 mm | - | 269 W/m² | - |
| 1788566234 | 23.89° C | 40% | 1016.2 hPa | 0 mm | - | 186 W/m² | - |
| 1788565929 | 24.44° C | 40% | 1016.3 hPa | 0 mm | - | 274 W/m² | - |
| 1788565623 | 24.44° C | 40% | 1016.5 hPa | 0 mm | - | 294 W/m² | - |
| 1788565319 | 23.89° C | 40% | 1016.5 hPa | 0 mm | - | 358 W/m² | - |
| 1788565015 | 25.56° C | 38% | 1016.4 hPa | 0 mm | - | 362 W/m² | - |
| 1788564710 | 25° C | 39% | 1016.4 hPa | 0 mm | - | 270 W/m² | - |
| 1788564407 | 25° C | 38% | 1016.3 hPa | 0 mm | - | 325 W/m² | - |
* Rain latest hour (hover to see other rain measurements)
** Current wind speed in m/s (hover to see current wind gust speed)